Home > Weather > Langkawi > Past weeks

Flag for Malaysia Past Weather in Langkawi, Malaysia — Yesterday and Last 2 Weeks

Now
84 °F

Partly cloudy.


Feels Like: 92 °F
Forecast: 78 / 87 °F
Wind: 8 mph from Northwest

Location: Langkawi

Current Time: Jul 28, 2016 at 8:32:28 PM

Latest Report: Jul 28, 2016 at 8:00 PM


Visibility: N/A

Pressure: 29.77 "Hg

Humidity: 74%

Dew Point: 75 °F

Location of LangkawiLocation

Past Weather in Langkawi — Graph

°F

Langkawi Temperature Yesterday

Maximum temperature yesterday: 88 °F (at 12:00 PM)
Minimum temperature yesterday: 77 °F (at 12:00 AM)
Average temperature yesterday: 81 °F

High & Low Weather Summary for the Past Weeks

 TemperatureHumidityPressure
High91 °F (Jul 17, 3:00 PM)94% (Jul 14, 8:00 AM)29.92 "Hg (Jul 14, 8:00 AM)
Low73 °F (Jul 26, 2:00 PM)66% (Jul 16, 3:00 PM)29.68 "Hg (Jul 14, 5:00 PM)
Average82 °F84%29.80 "Hg
* Reported Jul 13 7:00 PM — Jul 28 7:00 PM, Langkawi, Weather by CustomWeather, © 2016

Note: Actual official high and low records may vary slightly from our data, if they occured in-between our weather recording intervals... More about our weather records

Advertising

Langkawi Weather History for the Previous 24 Hours

Scroll right to see more
 ConditionsComfort  
Time TempWeatherWind HumidityBarometerVisibility
7:00 PM
Thu, Jul 28
86 °FPartly sunny.8 mph70%29.77 "HgN/A
6:00 PM86 °FBroken clouds.9 mph70%29.77 "HgN/A
5:00 PM88 °FBroken clouds.9 mph70%29.74 "HgN/A
4:00 PM90 °FBroken clouds.7 mph71%29.77 "HgN/A
3:00 PM90 °FPartly sunny.7 mph67%29.77 "HgN/A
2:00 PM90 °FBroken clouds.6 mph67%29.80 "HgN/A
1:00 PM90 °FBroken clouds.5 mph71%29.80 "HgN/A
12:00 PM86 °FBroken clouds.3 mph75%29.80 "HgN/A
11:00 AM86 °FSprinkles. Broken clouds.6 mph70%29.83 "HgN/A
10:00 AM86 °FBroken clouds.2 mph75%29.83 "HgN/A
9:00 AM82 °FBroken clouds.1 mph79%29.80 "HgN/A
8:00 AM79 °FBroken clouds.2 mph89%29.77 "HgN/A
7:00 AM77 °FPassing clouds.1 mph89%29.77 "HgN/A
6:00 AM77 °FPartly cloudy.2 mph89%29.77 "HgN/A
5:00 AM79 °FPartly cloudy.1 mph89%29.77 "HgN/A
4:00 AM77 °FPartly cloudy.No wind94%29.80 "HgN/A
3:00 AM79 °FPartly cloudy.No wind89%29.80 "HgN/A
2:00 AM79 °FPartly cloudy.No wind89%29.80 "HgN/A
1:00 AM79 °FPartly cloudy.2 mph89%29.83 "HgN/A
12:00 AM79 °FPartly cloudy.1 mph89%29.83 "HgN/A
11:00 PM
Wed, Jul 27
81 °FPartly cloudy.1 mph89%29.83 "HgN/A
10:00 PM81 °FPartly cloudy.1 mph89%29.83 "HgN/A
9:00 PM81 °FPartly cloudy.1 mph89%29.80 "HgN/A
8:00 PM82 °FPartly cloudy.No wind84%29.77 "HgN/A
Weather by CustomWeather, © 2016

See weather overviewHow to use our weather pages